User: anonymous   Login
Location: Casone le Fosse
(44.6547°N, 12.1103°E)
Time: 02:17:05
(UTC+00:00)
Language:

Timation 1 Rocket - Orbit

View from above orbital plane
View from above orbital plane
View from above satellite
View from above satellite

Ground track
Ground track

The orbit data is extracted from the following two-line orbital elements,

1 02825U 67053B   21015.38982029 -.00000028  00000-0  18157-4 0  9995
2 02825  69.9728 359.3875 0009786 237.7250 122.2909 13.97167148815675
Epoch (UTC): 15 January 2021 09:21:20
Eccentricity: 0.0009786
inclination: 69.9728°
perigee height: 896 km
apogee height: 911 km
right ascension of ascending node: 359.3875°
argument of perigee: 237.7250°
revolutions per day: 13.97167148
mean anomaly at epoch: 122.2909°
orbit number at epoch: 81567

The dashed part of the orbit path shows where the satellite is in the earth's shadow,  

DLR